www.pogodaiklimat.ru

Погода и климат >> Архив погоды >> Россия >> Шпицберген >> Баренцбург


АРХИВ ПОГОДЫ в Баренцбурге

Время (UTC), дата Ветер
(напр.,м/с)
 
Видим.   Явления Облачность Т
(С)
Тd
(С)
f
(%)
Тe
(С)
Тes
(С)
Комфортность P
(гПа)
Po
(гПа)
Тmin
(С)
Tmax
(С)
R
(мм)
R24
(мм)
S
(см)
15 14.10 Ю 9-11
{18}
10 км слабый дождь 10/10 300 м
[Frnb Ns]
+3.2 +1.5 89 -4 -4 по сезону 988.3 979.1 5
18 14.10 ЮВ 6-8
{14}
10 км слабый дождь 10/10 300 м
[Frnb Ns]
+3.6 +1.1 84 -2 -2 тепло 989.1 979.9 +5.6 6
21 14.10 ЮВ 7-9
{11}
10 км {дождь} 4/4 600 м
[Sc]
+3.3 -0.3 77 -3 -3 тепло 989.9 980.7
00 15.10 ЮВ 4-4
{11}
10 км {дождь} 10/10 600 м
[Sc]
+3.2 +0.1 80 -1 -1 тепло 990.3 981.0
03 15.10 ЮВ 4-5
{10}
10 км 6/6 600 м
[Sc]
+2.7 0.0 82 -2 -2 тепло 989.6 980.4 +2.5 1
06 15.10 ЮВ 4 10 км слабый дождь 10/8 600 м
[Sc As op]
+2.4 +1.0 90 -3 -3 тепло 989.7 980.4 +2.4 0.8 1
09 15.10 ЮВ 6 20 км {дождь} 10/6 600 м
[Sc Ac trans Ci fib]
+3.1 +0.3 82 -3 -3 тепло 990.2 981.0
12 15.10 Ю 4 10 км слабый дождь 10/8 600 м
[Sc As op]
+2.2 +0.5 89 -3 -3 тепло 990.7 981.4
15 15.10 Ю 5 10 км слабый дождь 10/10 300 м
[Frnb Ns]
+2.8 +0.3 84 -3 -3 тепло 990.9 981.7 1
18 15.10 ЮВ 4 10 км слабый дождь 10/5 600 м
[Sc As op]
+2.0 +0.5 90 -3 -3 тепло 991.2 981.9 +3.4 2
21 15.10 ЮВ 5 10 км слабый ливневой дождь 10/10 300 м
[Cb cap]
+2.0 +0.7 91 -4 -4 по сезону 991.0 981.7
00 16.10 ЮВ 5 10 км слабый ливневой дождь 10/10 300 м
[Cb cap]
+3.2 +0.7 84 -2 -2 тепло 991.1 981.8
03 16.10 Ю 4 10 км слабый ливневой дождь 10/10 300 м
[Cb cap]
+2.6 +0.6 87 -2 -2 тепло 991.5 982.3 +1.9 2
06 16.10 Ю 3 10 км слабый дождь {ливн. осадки} 10/8 300 м
[Frnb As op]
+2.2 +0.6 89 -2 -2 тепло 992.6 983.3 +1.9 2 1
09 16.10 ЮВ 4 20 км {дождь} 10/8 300 м
[Sc Ac und]
+2.3 0.0 85 -3 -3 тепло 994.0 984.7
12 16.10 ЮВ 4 10 км слабый дождь 10/8 300 м
[Sc As op]
+1.4 +0.4 93 -4 -4 по сезону 995.8 986.5
15 16.10 ЮВ 5 10 км в посл. час дождь 10/8 300 м
[Sc As op]
+1.5 +0.3 92 -4 -4 по сезону 997.5 988.2 4
18 16.10 ЮВ 4 10 км {дождь} 8/3 600 м
[Sc Ac trans Ci fib]
+1.1 -0.1 92 -4 -4 по сезону 999.5 990.1 +2.5 3
21 16.10 ЮВ 5 10 км в посл. час ливневой снег 9/8 300 м
[Cb cap Ac trans]
+1.0 -0.7 88 -5 -5 по сезону 1000.9 991.5
00 17.10 ЮВ 5 10 км {ливн. осадки} 6/3 600 м
[Sc Ac trans]
+0.8 -0.5 91 -5 -5 по сезону 1002.1 992.7
03 17.10 ЮВ 4 10 км {ливн. осадки} 4/4 600 м
[Sc]
+1.2 -0.7 87 -4 -4 по сезону 1002.9 993.5 +0.6 2
06 17.10 ЮВ 4 20 км {ливн. осадки} 9/6 600 м
[Sc Ac trans]
+1.0 -1.7 82 -4 -4 по сезону 1003.1 993.7 +0.6 2 2
09 17.10 ЮВ 4 10 км {ливн. осадки} 9/3 300 м
[Cb cap Ac trans Ci fib]
+0.4 -1.4 88 -5 -5 по сезону 1003.5 994.0
12 17.10 Ю 3 20 км {ливн. осадки} 6/3 600 м
[Sc Ac trans Ci fib]
-0.5 -2.3 88 -5 -5 по сезону 1003.5 994.0
15 17.10 В 2 20 км 3/1 600 м
[Sc Ci]
-1.3 -3.5 85 -5 -5 по сезону 1002.7 993.2 0.3
18 17.10 В 2 10 км 3/3 600 м
[Sc]
-1.7 -3.5 87 -6 -6 по сезону 1001.8 992.3 +1.1 0.3
21 17.10 СВ 1 10 км 4/0
[Ac lent]
-1.7 -3.5 87 -4 -4 тепло 1000.9 991.4
00 18.10 штиль 0 10 км 4/0
[Ac lent]
-2.3 -3.4 92 -4 -4 тепло 1000.2 990.7
03 18.10 СВ 2 10 км 6/4 600 м
[Sc Ac trans]
-1.9 -2.8 94 -6 -6 по сезону 999.0 989.5 -2.8
06 18.10 ЮВ 1 20 км 9/6 600 м
[Sc Ac trans]
-2.6 -3.4 94 -5 -5 по сезону 998.4 988.9 -2.8 2
09 18.10 штиль 0 50 км 9/9 300 м
[Cb cap]
-2.3 -3.0 95 -4 -4 тепло 998.6 989.1
12 18.10 штиль 0 50 км слабый ливневой снег 9/9 300 м
[Cb cap]
-2.0 -2.8 94 -3 -3 тепло 998.7 989.2
15 18.10 ЮВ 1 50 км {ливн. осадки} 9/9 300 м
[Cb cap]
-1.9 -2.7 94 -4 -4 тепло 999.1 989.6 0.3
18 18.10 ЮВ 2 10 км {ливн. осадки} 6/3 600 м
[Sc Ac trans]
-2.5 -3.6 92 -7 -7 по сезону 1000.1 990.6 -1.5 0.3
21 18.10 ЮВ 3 10 км 6/0
[Ac trans]
-3.4 -4.1 95 -9 -9 по сезону 1001.2 991.6
00 19.10 ЮВ 1 2000 м дымка 6/0
[Ac trans]
-4.1 -4.7 96 -7 -7 по сезону 1002.9 993.3
03 19.10 ЮВ 1 2000 м дымка ясно -5.0 -5.6 96 -8 -8 по сезону 1004.4 994.8 -5.3
06 19.10 штиль 0 20 км 8/0
[Ci fib]
-3.7 -6.0 84 -5 -5 по сезону 1005.8 996.2 -5.3 3
09 19.10 ЮВ 1 20 км туман местами ясно -2.4 -4.3 87 -5 -5 по сезону 1007.6 998.0
12 19.10 штиль 0 10 км туман местами 1/0
[Ac lent]
-3.7 -5.8 85 -5 -5 по сезону 1009.6 999.9
15 19.10 штиль 0 10 км туман местами 3/0
[Ci fib]
-3.8 -5.5 88 -5 -5 по сезону 1010.5 1000.8
18 19.10 В 1 4000 м туман местами 3/0
[Ci fib]
-4.0 -4.7 95 -6 -6 по сезону 1011.3 1001.6 -1.7
21 19.10 ЮВ 2 2000 м туман местами ясно -4.8 -5.6 94 -9 -9 по сезону 1011.7 1002.0
00 20.10 ЮВ 2 500 м снег {туман} ?/? -4.6 -5.2 96 -9 -9 по сезону 1011.7 1002.0
03 20.10 В 1 4000 м слабый снег 10/0
[As op]
-5.1 -5.7 96 -8 -8 по сезону 1010.5 1000.8 -5.2 0.2
06 20.10 СВ 2 2000 м дымка {снег, туман} 4/0
[Ci fib]
-5.4 -6.1 95 -10 -10 по сезону 1009.2 999.5 -5.9 4
09 20.10 ЮВ 2 500 м туман ?/? -6.0 -6.8 94 -10 -10 по сезону 1007.7 998.0
12 20.10 штиль 0 20 км {туман} 9/9 600 м
[Sc]
-2.7 -4.2 89 -4 -4 тепло 1005.3 995.8
15 20.10 ЮВ 6-10
{11}
20 км 10/10 600 м
[Sc]
+2.6 -2.1 71 -3 -3 тепло 1001.4 992.1 0.0
18 20.10 ЮВ 9-13
{13}
20 км слабый дождь {снег} 10/8 600 м
[Sc As op]
+2.9 -1.6 72 -4 -4 тепло 997.7 988.4 +3.1 0.0
21 20.10 ЮВ 8-10
{15}
4000 м дождь 10/10 300 м
[Frnb Ns]
+3.4 0.0 78 -3 -3 тепло 995.2 985.9
00 21.10 ЮВ 4-7
{11}
10 км в посл. час морось {дождь} 8/8 300 м
[Sc]
+4.1 +0.2 76 -0 -0 тепло 993.4 984.2
03 21.10 В 6 10 км 4/4
[Sc]
+4.7 +0.1 72 -0 -0 тепло 990.1 980.9 +2.4 0.6
06 21.10 ЮВ 7-9
{12}
10 км 8/8 600 м
[Sc]
+4.2 -0.4 72 -1 -1 тепло 987.7 978.6 +2.4 0.6 1
09 21.10 ЮВ 7-9
{12}
20 км 9/8 600 м
[Sc Ac trans]
+4.9 -0.3 69 -0 -0 тепло 985.4 976.2

 

Местоположение метеостанции Баренцбург (Шпицберген, Россия): широта 78.07 долгота 14.25 высота над уровнем моря 75 м.

В архиве по умолчанию представлена погода в Баренцбурге за последнюю неделю. Архивные данные за месяц целиком и за предыдущие месяцы, начиная с января 2011 года, Вы можете получить, выбрав интересующий диапазон дат из раскрывающегося списка и нажав кнопку "Ввод!".


*Определитесь, кто Вы:
робот инопланетянин человек

Внимание! Время в таблицах - всемирное. Для получения местного времени необходимо прибавить поправку, которая в Баренцбурге равна 1 ч.

Смотрите также архив погоды в соседних городах и на ближайших метеорологических станциях:

Погода в Svalbard Lufthavn (Норвегия) (35 км)
Погода в Akseloya (Норвегия) (45 км)
Погода в Pyramiden (Норвегия) (81 км)
Погода в Ny-Alesund (Норвегия) (108 км)
Погода в Hornsund (Норвегия) (123 км)
Погода в Sorkappoya (Норвегия) (186 км)
Погода в Edgeoya (Норвегия) (196 км)
Погода в Verlegenhuken (Норвегия) (224 км)
Погода в Hopen (Норвегия) (315 км)
Погода в Kongsoya (Норвегия) (337 км)

Пояснения к столбцам:

Ветер - указаны скорость ветра в м/с - средняя за 10 мин, порывы в срок и между сроками (в фигурных скобках) и направление, откуда дует ветер: С - северный, СВ - северо-восточный, В - восточный, ЮВ - юго-восточный, Ю - южный, ЮЗ - юго-западный, З - западный, СЗ - северо-западный.
Видимость - горизонтальная дальность видимости в метрах или километрах. При видимости от 1 до 10 км при отсутствии осадков обычно наблюдается дымка, при ухудшении видимости до 1 км и менее - туман. В сухую погоду видимость может ухудшаться дымом, пылью или мглою.
Явления - указаны атмосферные явления, наблюдавшиеся в срок или в последний час перед сроком; фигурными скобками обозначены явления, наблюдавшиеся между сроками (за 1-3 часа до срока); квадратными скобками обозначены град или гололедные отложения с указанием их диаметра в мм.
Облачность - указаны через наклонную черту общая и нижняя облачность в баллах и высота нижней границы облаков в метрах; квадратными скобками обозначены формы облаков: Ci - перистые, Cs - перисто-слоистые, Cc - перисто-кучевые, Ac - высококучевые, As - высокослоистые, Sc - слоисто-кучевые, Ns - слоисто-дождевые, Cu - кучевые, Cb - кучево-дождевые. Подробнее классификацию облаков см. в Атласе облаков (PDF).
T - Температура воздуха - температура, измеренная на высоте 2 м над землей.
Td - Температура точки росы - температура, при понижении до которой содержащийся в воздухе водяной пар достигнет насыщения.
f - Относительная влажность воздуха - влажноcть воздуха, измеренная на высоте 2 м над землей.
Te - Эффективная температура - температура, которую ощущает одетый по сезону человек в тени. Характеристика душности погоды. При расчете учитывается влияние влажности воздуха и скорости ветра на теплоощущения человека.
Tes - Эффективная температура на солнце - температура, которую ощущает человек, с поправкой на солнечный нагрев. Характеристика знойности погоды. Зависит от высоты солнца над горизонтом, облачности и скорости ветра. Ночью, в пасмурную погоду, а также при ветре 12 м/с и более поправка равна нулю.
P - Атмосферное давление - приведенное к уровню моря атмосферное давление.
Po - Атмосферное давление - измеренное на уровне метеостанции атмосферное давление.
Tmin - Минимальная температура - минимум температуры воздуха на высоте 2 м над землей.
Tmax - Максимальная температура - максимум температуры воздуха на высоте 2 м над землей.
R - Количество осадков - Количество выпавших осадков за период времени, мм. При наведении курсора мыши на число - период времени, за который выпало указанное количество осадков.
R24 - Количество осадков - Количество выпавших осадков за 24 часа, мм.
S - Снежный покров - Высота снежного покрова, см. При наведении курсора мыши на число - состояние снежного покрова и степень покрытия местности в баллах.